Weather in Wertheim am Main

Germany     49°45′34″N   9°30′56″E
temp.,
°C
wind,
m/s
gust,
m/s
humid.,
%
clouds,
%
prec.,
mm/h
press.,
hPa
HPBL,
m
31 july, sat
sat3123:00+17wsw311910 0.6 1009277
02:00+15wsw411910 0.6 1011415
05:00+13sw310940 0.1 1010228
08:00+15wsw411855 0.1 1011779
11:00+19wsw6105412 0.0 10111501
14:00+22w694723 0.0 10102058
17:00+22w58476 0.0 10101998
20:00+18w376565 0.0 1011303
1 august, sun
sun123:00+15wnw2876100 0.0 1011196
02:00+14w1182100 0.0 101115
05:00+13wnw1186100 0.0 101011
08:00+14w1282100 0.0 1011135
11:00+18w3465100 0.0 1011990
14:00+20wnw3453100 0.3 10101682
17:00+21w345372 0.1 10101579
20:00+17sw3680100 1.0 1010115
2 august, mon
mon223:00+14sw3991100 0.3 1012213
02:00+12wsw249263 0.4 101378
05:00+11wsw27955 0.0 1013136
08:00+14wsw39883 0.0 1014423
11:00+18w567167 0.4 10151150
14:00+18nw457193 1.4 1015840
17:00+20w35647 0.9 10151223
20:00+17w238429 2.3 101558
3 august, tue
tue323:00+13sw229333 1.4 101618
02:00+13ssw23941 1.5 101644
05:00+12ssw2496100 0.0 101578
08:00+15sw31091100 0.1 1015388
11:00+18sw51076100 2.1 10141087
14:00+18w697796 4.4 10141062
17:00+19w477450 2.0 1014980
20:00+16w37879 3.3 1014284
4 august, wed
wed423:00+13ssw1192100 0.0 101411
02:00+13sw1193100 0.0 101410
05:00+13sw1194100 0.1 101327
08:00+14ssw1294100 1.2 101372
11:00+14sw3894100 1.4 1014568
14:00+14sw389394 2.1 1014574
17:00+16wsw488736 0.6 1013673
20:00+16sw258745 1.0 1013195